Gunnison, CO

4:40 PM MDT on June 25, 2017 (GMT -0600)
Gunnison County

Weather History for KGUC - March, 2014

Change the Weather History Date:

Friday, March 7, 2014

  Actual Average Record
Temperature  
Mean Temperature 27 °F -  
Max Temperature 35 °F 35 °F 48 °F (1999)
Min Temperature 19 °F 11 °F -14 °F (2008)
Degree Days  
Heating Degree Days 38    
Moisture  
Dew Point 22 °F    
Average Humidity 78    
Maximum Humidity 93    
Minimum Humidity 65    
Precipitation  
Precipitation 0.05 in - - ()
Sea Level Pressure  
Sea Level Pressure 29.99 in    
Wind  
Wind Speed 4 mph (South)    
Max Wind Speed 13 mph    
Max Gust Speed -    
Visibility 8 miles    
Events      
Averages and records for this station are not official NWS values.
T = Trace of Precipitation, MM = Missing Value Source: NWS Daily Summary

Daily Weather History Graph

Daily Weather History Graph

Search for Another Location

Airport or City:

Trip Planner

Search our weather history database for the weather conditions in past years. The results will help you decide how hot, cold, wet, or windy it might be!

Date:

Astronomy

Mar. 07, 2014 Rise Set
Actual Time 6:30 AM MST 6:06 PM MST
Civil Twilight 6:04 AM MST 6:33 PM MST
Nautical Twilight 5:33 AM MST 7:04 PM MST
Astronomical Twilight 5:03 AM MST 7:35 PM MST
Moon 10:30 AM MST (3/7) 12:10 AM MST (3/7)
Length of Visible Light 12h 28m
Length of Day
11h 36m
Waxing Crescent, 42% of the Moon is Illuminated
Mar 7
Waxing Crescent
Mar 8
First Quarter
Mar 16
Full
Mar 23
Last Quarter
Mar 30
New

Hourly Weather History & Observations

Time (MST) Temp. Windchill Dew Point Humidity Pressure Visibility Wind Dir Wind Speed Gust Speed Precip Events Conditions
12:15 AM 28.4 °F 19.7 °F 19.4 °F 69% 30.02 in 10.0 mi NNE 9.2 mph - N/A   Mostly Cloudy
12:35 AM 26.6 °F 22.6 °F 17.6 °F 69% 30.02 in 10.0 mi ESE 3.5 mph - N/A   Overcast
12:55 AM 26.6 °F 21.2 °F 17.6 °F 69% 30.03 in 10.0 mi NW 4.6 mph - N/A   Mostly Cloudy
1:15 AM 26.6 °F 20.0 °F 17.6 °F 69% 30.01 in 10.0 mi NE 5.8 mph - N/A   Scattered Clouds
1:35 AM 24.8 °F 20.5 °F 15.8 °F 69% 30.01 in 10.0 mi ESE 3.5 mph - N/A   Mostly Cloudy
1:55 AM 24.8 °F - 19.4 °F 80% 30.00 in 10.0 mi Calm Calm - N/A   Scattered Clouds
2:15 AM 26.6 °F 22.6 °F 19.4 °F 74% 29.99 in 10.0 mi WNW 3.5 mph - N/A   Clear
2:35 AM 24.8 °F - 19.4 °F 80% 29.99 in 10.0 mi Calm Calm - N/A   Clear
2:55 AM 24.8 °F 20.5 °F 17.6 °F 74% 29.98 in 10.0 mi NNE 3.5 mph - N/A   Mostly Cloudy
3:15 AM 24.8 °F 20.5 °F 17.6 °F 74% 29.98 in 10.0 mi North 3.5 mph - N/A   Overcast
3:35 AM 23.0 °F - 17.6 °F 80% 29.98 in 10.0 mi Calm Calm - N/A   Mostly Cloudy
3:55 AM 21.2 °F - 17.6 °F 86% 29.97 in 10.0 mi Calm Calm - N/A   Scattered Clouds
4:15 AM 21.2 °F 16.4 °F 19.4 °F 93% 29.97 in 10.0 mi North 3.5 mph - N/A   Mostly Cloudy
4:35 AM 24.8 °F 19.1 °F 19.4 °F 80% 29.96 in 10.0 mi NNE 4.6 mph - N/A   Mostly Cloudy
4:55 AM 23.0 °F - 17.6 °F 80% 29.97 in 10.0 mi Calm Calm - N/A   Scattered Clouds
5:15 AM 21.2 °F - 15.8 °F 80% 29.96 in 10.0 mi Calm Calm - N/A   Scattered Clouds
5:35 AM 19.4 °F 14.3 °F 15.8 °F 86% 29.96 in 10.0 mi East 3.5 mph - N/A   Scattered Clouds
5:55 AM 19.4 °F - 17.6 °F 93% 29.96 in 10.0 mi Calm Calm - N/A   Mostly Cloudy
6:15 AM 21.2 °F - 17.6 °F 86% 29.96 in 10.0 mi Calm Calm - N/A   Overcast
6:35 AM 21.2 °F - 17.6 °F 86% 29.95 in 10.0 mi Calm Calm - N/A   Mostly Cloudy
6:55 AM 21.2 °F - 17.6 °F 86% 29.95 in 10.0 mi Calm Calm - N/A   Mostly Cloudy
7:15 AM 21.2 °F 13.6 °F 15.8 °F 80% 29.95 in 10.0 mi South 5.8 mph - N/A   Overcast
7:35 AM 21.2 °F - 17.6 °F 86% 29.95 in 10.0 mi Calm Calm - N/A   Mostly Cloudy
7:55 AM 23.0 °F 18.4 °F 15.8 °F 74% 29.96 in 10.0 mi South 3.5 mph - N/A   Overcast
8:15 AM 24.8 °F 20.5 °F 17.6 °F 74% 29.96 in 10.0 mi WSW 3.5 mph - N/A   Overcast
8:35 AM 24.8 °F 17.9 °F 17.6 °F 74% 29.95 in 5.0 mi WSW 5.8 mph - N/A   Overcast
8:55 AM 26.6 °F 21.2 °F 19.4 °F 74% 29.95 in 4.0 mi WSW 4.6 mph - N/A   Overcast
9:15 AM 26.6 °F - 21.2 °F 80% 29.95 in 1.5 mi Calm Calm - N/A   Overcast
9:35 AM 24.8 °F - 21.2 °F 86% 29.96 in 0.8 mi Calm Calm - N/A   Overcast
9:55 AM 26.6 °F - 21.2 °F 80% 29.96 in 0.8 mi Calm Calm - 0.01 in   Overcast
10:15 AM 26.6 °F 22.6 °F 21.2 °F 80% 29.95 in 0.5 mi East 3.5 mph - 0.01 in   Overcast
10:35 AM 26.6 °F - 21.2 °F 80% 29.95 in 1.2 mi Calm Calm - 0.01 in   Overcast
10:55 AM 26.6 °F - 23.0 °F 86% 29.94 in 1.0 mi Calm Calm - 0.02 in   Overcast
11:15 AM 28.4 °F - 26.6 °F 93% 29.94 in 5.0 mi Calm Calm - N/A   Scattered Clouds
11:35 AM 28.4 °F - 24.8 °F 86% 29.94 in 10.0 mi Calm Calm - N/A   Mostly Cloudy
11:55 AM 28.4 °F - 24.8 °F 86% 29.94 in 10.0 mi Calm Calm - N/A   Overcast
12:15 PM 30.2 °F 25.4 °F 24.8 °F 80% 29.92 in 2.0 mi ENE 4.6 mph - N/A   Overcast
12:35 PM 30.2 °F 26.7 °F 26.6 °F 86% 29.93 in 1.2 mi East 3.5 mph - N/A   Overcast
12:55 PM 30.2 °F 25.4 °F 26.6 °F 86% 29.92 in 2.5 mi East 4.6 mph - N/A   Mostly Cloudy
1:15 PM 33.8 °F 27.7 °F 28.4 °F 81% 29.92 in 4.0 mi North 6.9 mph - N/A   Overcast
1:35 PM 33.8 °F 30.8 °F 30.2 °F 87% 29.92 in 1.8 mi NNW 3.5 mph - N/A   Overcast
1:55 PM 32.0 °F 27.5 °F 28.4 °F 87% 29.92 in 2.0 mi South 4.6 mph - N/A   Overcast
2:15 PM 32.0 °F 25.6 °F 28.4 °F 87% 29.92 in 1.0 mi SSE 6.9 mph - 0.01 in   Overcast
2:35 PM 32.0 °F - 28.4 °F 87% 29.93 in 1.0 mi Calm Calm - 0.01 in   Overcast
2:55 PM 32.0 °F 27.5 °F 28.4 °F 87% 29.94 in 3.0 mi WSW 4.6 mph - 0.02 in   Overcast
3:15 PM 33.8 °F 27.0 °F 26.6 °F 75% 29.95 in 4.0 mi NW 8.1 mph - N/A   Overcast
3:35 PM 33.8 °F 29.6 °F 26.6 °F 75% 29.95 in 10.0 mi SW 4.6 mph - N/A   Mostly Cloudy
3:55 PM 35.6 °F 31.7 °F 26.6 °F 70% 29.96 in 10.0 mi SSW 4.6 mph - N/A   Overcast
4:15 PM 35.6 °F 31.7 °F 26.6 °F 70% 29.96 in 10.0 mi SSW 4.6 mph - N/A   Overcast
4:35 PM 35.6 °F 32.8 °F 24.8 °F 65% 29.97 in 10.0 mi SSW 3.5 mph - N/A   Overcast
4:55 PM 35.6 °F 30.7 °F 24.8 °F 65% 29.97 in 10.0 mi WSW 5.8 mph - N/A   Mostly Cloudy
5:15 PM 35.6 °F 32.8 °F 24.8 °F 65% 29.98 in 10.0 mi WSW 3.5 mph - N/A   Clear
5:35 PM 35.6 °F 31.7 °F 24.8 °F 65% 29.99 in 10.0 mi WSW 4.6 mph - N/A   Mostly Cloudy
5:55 PM 35.6 °F 32.8 °F 24.8 °F 65% 30.00 in 10.0 mi WSW 3.5 mph - N/A   Mostly Cloudy
6:15 PM 33.8 °F 27.7 °F 23.0 °F 65% 30.01 in 10.0 mi WSW 6.9 mph - N/A   Partly Cloudy
6:35 PM 33.8 °F 28.6 °F 23.0 °F 65% 30.01 in 10.0 mi WSW 5.8 mph - N/A   Clear
6:55 PM 33.8 °F 27.7 °F 23.0 °F 65% 30.02 in 10.0 mi SW 6.9 mph - N/A   Clear
7:15 PM 33.8 °F 30.8 °F 23.0 °F 65% 30.03 in 10.0 mi WSW 3.5 mph - N/A   Clear
7:35 PM 32.0 °F - 23.0 °F 69% 30.04 in 10.0 mi Calm Calm - N/A   Clear
7:55 PM 33.8 °F 30.8 °F 23.0 °F 65% 30.05 in 10.0 mi East 3.5 mph - N/A   Clear
8:15 PM 33.8 °F - 24.8 °F 70% 30.05 in 10.0 mi Calm Calm - N/A   Mostly Cloudy
8:35 PM 32.0 °F 27.5 °F 24.8 °F 75% 30.06 in 10.0 mi East 4.6 mph - N/A   Mostly Cloudy
8:55 PM 33.8 °F 29.6 °F 24.8 °F 70% 30.07 in 10.0 mi SW 4.6 mph - N/A   Mostly Cloudy
9:15 PM 32.0 °F 28.7 °F 24.8 °F 75% 30.07 in 4.0 mi SSW 3.5 mph - N/A   Overcast
9:35 PM 30.2 °F 26.7 °F 24.8 °F 80% 30.08 in 7.0 mi East 3.5 mph - N/A   Overcast
9:55 PM 30.2 °F 25.4 °F 24.8 °F 80% 30.08 in 5.0 mi SSE 4.6 mph - N/A   Scattered Clouds
10:15 PM 30.2 °F - 24.8 °F 80% 30.09 in 10.0 mi Calm Calm - N/A   Clear
10:35 PM 30.2 °F 24.3 °F 24.8 °F 80% 30.09 in 10.0 mi ENE 5.8 mph - N/A   Clear
10:55 PM 30.2 °F 23.4 °F 24.8 °F 80% 30.09 in 10.0 mi ENE 6.9 mph - N/A   Clear
11:15 PM 30.2 °F 21.3 °F 24.8 °F 80% 30.09 in 10.0 mi ENE 10.4 mph - N/A   Clear
11:35 PM 30.2 °F 20.2 °F 24.8 °F 80% 30.10 in 10.0 mi East 12.7 mph - N/A   Clear
11:55 PM 30.2 °F 20.2 °F 23.0 °F 75% 30.11 in 10.0 mi East 12.7 mph - N/A   Partly Cloudy